Location: Cantaing
(50.1487°N, 3.1675°E)
Time: 06:44:42
(UTC+00:00)

CBERS-1 - Pass Details

Date: 14 January 2026
Orbit: 765 x 772 km, 98.9° (Epoch: 10 February)

Event Time Altitude Azimuth Distance (km) Brightness Sun altitude
Rises 05:50:27 0° 17° (NNE) 3,245 7.3 -17.1°
Reaches altitude 10° 05:52:47 10° 20° (NNE) 2,314 6.6 -16.7°
Maximum altitude 05:57:52 69° 103° (ESE) 823 4.3 -15.9°
Drops below altitude 10° 06:02:55 10° 187° (S) 2,299 6.6 -15.2°
Sets 06:05:13 0° 190° (S) 3,222 7.3 -14.8°
